GLD879 SNYU-SWJW

Flight info

Callsign GLD879
Flight time 1h 0m
Altitude 4500
Route DCT 1928S05050W 1909S05112W 1845S05128W 1822S05141W 1756S05147W DCT
Aircraft BE35/M-SDFGIRY/S

Departure

Time 2026-05-07 23:24
Airport Iturama Airport (SNYU)

Arrival

Time 2026-05-08 00:24
Airport Jataí Airport (SWJW)
Time Latitude Longitude Altitude Speed Heading
2026-05-07 23:15 -19.72343 -50.21786 1572 ft 0 kts 85°
2026-05-07 23:19 -19.72342 -50.21801 1572 ft 2 kts 141°
2026-05-07 23:19 -19.72336 -50.21802 1572 ft 0 kts 187°
2026-05-07 23:22 -19.72368 -50.21838 1572 ft 14 kts 257°
2026-05-07 23:22 -19.72339 -50.21896 1571 ft 0 kts 348°
2026-05-07 23:23 -19.72041 -50.21970 1568 ft 85 kts 347°
2026-05-07 23:23 -19.71313 -50.22144 1689 ft 119 kts 348°
2026-05-07 23:23 -19.70491 -50.22283 2082 ft 120 kts 352°
2026-05-07 23:24 -19.69652 -50.22546 2280 ft 133 kts 342°
2026-05-07 23:24 -19.68752 -50.22856 2481 ft 136 kts 340°
2026-05-07 23:24 -19.68105 -50.23578 2667 ft 142 kts 291°
2026-05-07 23:24 -19.68226 -50.24627 2874 ft 154 kts 252°
2026-05-07 23:25 -19.68636 -50.25692 3071 ft 155 kts 255°
2026-05-07 23:25 -19.69035 -50.26769 3261 ft 156 kts 257°
2026-05-07 23:25 -19.69144 -50.27935 3458 ft 165 kts 279°
2026-05-07 23:25 -19.68844 -50.29133 3675 ft 170 kts 295°
2026-05-07 23:26 -19.68383 -50.30290 3862 ft 171 kts 298°
2026-05-07 23:26 -19.67893 -50.31460 4052 ft 171 kts 298°
2026-05-07 23:26 -19.67424 -50.32614 4248 ft 171 kts 298°
2026-05-07 23:26 -19.66944 -50.33776 4411 ft 177 kts 298°
2026-05-07 23:27 -19.65918 -50.36299 4412 ft 190 kts 297°
2026-05-07 23:27 -19.65398 -50.37581 4411 ft 191 kts 298°
2026-05-07 23:27 -19.64868 -50.38874 4426 ft 193 kts 297°
2026-05-07 23:28 -19.64330 -50.40188 4418 ft 196 kts 297°
2026-05-07 23:28 -19.63792 -50.41524 4409 ft 193 kts 297°
2026-05-07 23:28 -19.63271 -50.42801 4421 ft 189 kts 298°
2026-05-07 23:28 -19.62738 -50.44098 4412 ft 189 kts 297°
2026-05-07 23:29 -19.62229 -50.45359 4410 ft 185 kts 298°
2026-05-07 23:29 -19.61711 -50.46614 4411 ft 185 kts 298°
2026-05-07 23:29 -19.61201 -50.47861 4407 ft 182 kts 298°
2026-05-07 23:29 -19.60700 -50.49089 4402 ft 178 kts 298°
2026-05-07 23:30 -19.60201 -50.50311 4414 ft 182 kts 298°
2026-05-07 23:30 -19.59693 -50.51551 4416 ft 186 kts 298°
2026-05-07 23:30 -19.59174 -50.52820 4412 ft 187 kts 298°
2026-05-07 23:30 -19.58825 -50.53682 4416 ft 185 kts 298°
2026-05-07 23:31 -19.58307 -50.54944 4410 ft 182 kts 298°
2026-05-07 23:31 -19.57796 -50.56184 4408 ft 181 kts 299°
2026-05-07 23:31 -19.57288 -50.57435 4401 ft 181 kts 297°
2026-05-07 23:31 -19.56804 -50.58646 4409 ft 180 kts 299°
2026-05-07 23:32 -19.56288 -50.59867 4406 ft 182 kts 298°
2026-05-07 23:32 -19.55787 -50.61095 4416 ft 182 kts 298°
2026-05-07 23:32 -19.55277 -50.62342 4413 ft 183 kts 298°
2026-05-07 23:32 -19.54771 -50.63580 4412 ft 184 kts 298°
2026-05-07 23:33 -19.54266 -50.64810 4408 ft 182 kts 298°
2026-05-07 23:33 -19.53757 -50.66054 4407 ft 183 kts 298°
2026-05-07 23:33 -19.53257 -50.67281 4408 ft 179 kts 298°
2026-05-07 23:33 -19.52753 -50.68491 4401 ft 179 kts 298°
2026-05-07 23:34 -19.52265 -50.69695 4409 ft 179 kts 298°
2026-05-07 23:34 -19.51767 -50.70914 4411 ft 181 kts 298°
2026-05-07 23:34 -19.51261 -50.72137 4410 ft 182 kts 298°
2026-05-07 23:34 -19.50762 -50.73364 4411 ft 180 kts 298°
2026-05-07 23:35 -19.50260 -50.74575 4407 ft 179 kts 299°
2026-05-07 23:35 -19.49761 -50.75790 4409 ft 179 kts 298°
2026-05-07 23:35 -19.49262 -50.77000 4416 ft 181 kts 298°
2026-05-07 23:35 -19.48768 -50.78222 4402 ft 179 kts 298°
2026-05-07 23:36 -19.48263 -50.79448 4408 ft 184 kts 298°
2026-05-07 23:36 -19.47751 -50.80695 4417 ft 186 kts 298°
2026-05-07 23:36 -19.47230 -50.81961 4398 ft 185 kts 298°
2026-05-07 23:36 -19.46712 -50.83187 4392 ft 179 kts 302°
2026-05-07 23:37 -19.45973 -50.84205 4393 ft 172 kts 317°
2026-05-07 23:37 -19.45154 -50.85106 4397 ft 172 kts 317°
2026-05-07 23:37 -19.44341 -50.86030 4402 ft 171 kts 316°
2026-05-07 23:37 -19.43535 -50.86963 4394 ft 172 kts 316°
2026-05-07 23:38 -19.42729 -50.87899 4418 ft 174 kts 316°
2026-05-07 23:38 -19.41891 -50.88875 4403 ft 178 kts 316°
2026-05-07 23:38 -19.41061 -50.89827 4416 ft 174 kts 316°
2026-05-07 23:38 -19.40242 -50.90786 4417 ft 177 kts 315°
2026-05-07 23:39 -19.39429 -50.91735 4402 ft 174 kts 316°
2026-05-07 23:39 -19.38613 -50.92678 4408 ft 174 kts 316°
2026-05-07 23:39 -19.37790 -50.93633 4406 ft 177 kts 316°
2026-05-07 23:39 -19.36951 -50.94605 4411 ft 180 kts 316°
2026-05-07 23:40 -19.36105 -50.95583 4413 ft 180 kts 316°
2026-05-07 23:40 -19.35256 -50.96568 4411 ft 181 kts 315°
2026-05-07 23:40 -19.34407 -50.97554 4416 ft 181 kts 316°
2026-05-07 23:40 -19.33556 -50.98542 4405 ft 181 kts 316°
2026-05-07 23:41 -19.32720 -50.99504 4401 ft 174 kts 316°
2026-05-07 23:41 -19.31912 -51.00446 4407 ft 174 kts 316°
2026-05-07 23:41 -19.31092 -51.01394 4397 ft 173 kts 316°
2026-05-07 23:41 -19.30273 -51.02336 4399 ft 175 kts 315°
2026-05-07 23:42 -19.29455 -51.03286 4410 ft 175 kts 316°
2026-05-07 23:42 -19.28637 -51.04243 4404 ft 175 kts 316°
2026-05-07 23:42 -19.27818 -51.05181 4412 ft 177 kts 316°
2026-05-07 23:42 -19.26990 -51.06140 4407 ft 176 kts 316°
2026-05-07 23:43 -19.26163 -51.07097 4402 ft 176 kts 316°
2026-05-07 23:43 -19.25339 -51.08051 4410 ft 176 kts 315°
2026-05-07 23:43 -19.24513 -51.09003 4408 ft 176 kts 316°
2026-05-07 23:43 -19.23695 -51.09952 4406 ft 173 kts 316°
2026-05-07 23:44 -19.22867 -51.10913 4408 ft 177 kts 316°
2026-05-07 23:44 -19.22043 -51.11858 4415 ft 175 kts 316°
2026-05-07 23:44 -19.21216 -51.12817 4406 ft 177 kts 316°
2026-05-07 23:44 -19.20387 -51.13774 4405 ft 176 kts 316°
2026-05-07 23:45 -19.19556 -51.14734 4407 ft 178 kts 316°
2026-05-07 23:45 -19.18722 -51.15701 4412 ft 179 kts 316°
2026-05-07 23:45 -19.17878 -51.16674 4411 ft 181 kts 316°
2026-05-07 23:45 -19.17027 -51.17657 4404 ft 179 kts 315°
2026-05-07 23:46 -19.16200 -51.18615 4399 ft 174 kts 316°
2026-05-07 23:46 -19.15376 -51.19563 4406 ft 176 kts 316°
2026-05-07 23:46 -19.14466 -51.20408 4403 ft 173 kts 329°
2026-05-07 23:46 -19.13442 -51.21063 4408 ft 172 kts 331°
2026-05-07 23:47 -19.12417 -51.21726 4408 ft 173 kts 330°
2026-05-07 23:47 -19.11396 -51.22406 4411 ft 173 kts 330°
2026-05-07 23:47 -19.10375 -51.23090 4405 ft 173 kts 329°
2026-05-07 23:47 -19.09368 -51.23762 4410 ft 170 kts 330°
2026-05-07 23:48 -19.08359 -51.24434 4407 ft 172 kts 330°
2026-05-07 23:48 -19.07348 -51.25110 4405 ft 172 kts 330°
2026-05-07 23:48 -19.06339 -51.25785 4408 ft 172 kts 330°
2026-05-07 23:48 -19.05335 -51.26457 4404 ft 170 kts 330°
2026-05-07 23:49 -19.04347 -51.27115 4408 ft 171 kts 330°
2026-05-07 23:49 -19.03335 -51.27789 4416 ft 173 kts 330°
2026-05-07 23:49 -19.02313 -51.28472 4404 ft 173 kts 330°
2026-05-07 23:49 -19.01306 -51.29145 4401 ft 170 kts 330°
2026-05-07 23:50 -19.00309 -51.29809 4409 ft 169 kts 330°
2026-05-07 23:50 -18.99300 -51.30482 4400 ft 172 kts 330°
2026-05-07 23:50 -18.98274 -51.31167 4415 ft 174 kts 330°
2026-05-07 23:50 -18.97256 -51.31847 4415 ft 176 kts 330°
2026-05-07 23:51 -18.96228 -51.32535 4417 ft 175 kts 330°
2026-05-07 23:51 -18.95197 -51.33222 4405 ft 173 kts 330°
2026-05-07 23:51 -18.94184 -51.33896 4411 ft 173 kts 330°
2026-05-07 23:51 -18.93177 -51.34565 4414 ft 172 kts 330°
2026-05-07 23:52 -18.92152 -51.35247 4413 ft 174 kts 329°
2026-05-07 23:52 -18.91125 -51.35935 4420 ft 175 kts 330°
2026-05-07 23:52 -18.90094 -51.36619 4411 ft 175 kts 330°
2026-05-07 23:52 -18.89066 -51.37305 4413 ft 175 kts 330°
2026-05-07 23:53 -18.88040 -51.37986 4419 ft 175 kts 330°
2026-05-07 23:53 -18.87015 -51.38673 4416 ft 174 kts 330°
2026-05-07 23:53 -18.85990 -51.39355 4414 ft 174 kts 330°
2026-05-07 23:53 -18.84959 -51.40037 4415 ft 175 kts 330°
2026-05-07 23:54 -18.83921 -51.40728 4420 ft 177 kts 330°
2026-05-07 23:54 -18.82904 -51.41411 4417 ft 175 kts 330°
2026-05-07 23:54 -18.81875 -51.42100 4421 ft 177 kts 330°
2026-05-07 23:54 -18.80844 -51.42781 4417 ft 174 kts 332°
2026-05-07 23:55 -18.79817 -51.43456 4419 ft 175 kts 330°
2026-05-07 23:55 -18.78735 -51.44178 4423 ft 177 kts 331°
2026-05-07 23:55 -18.77688 -51.44877 4412 ft 177 kts 331°
2026-05-07 23:55 -18.76651 -51.45560 4420 ft 174 kts 331°
2026-05-07 23:56 -18.75622 -51.46248 4424 ft 176 kts 330°
2026-05-07 23:56 -18.74590 -51.46913 4422 ft 175 kts 333°
2026-05-07 23:56 -18.73519 -51.47514 4422 ft 173 kts 335°
2026-05-07 23:56 -18.72447 -51.48113 4421 ft 174 kts 334°
2026-05-07 23:57 -18.71385 -51.48708 4423 ft 169 kts 334°
2026-05-07 23:57 -18.70362 -51.49295 4437 ft 165 kts 334°
2026-05-07 23:57 -18.69331 -51.49880 4426 ft 170 kts 335°
2026-05-07 23:57 -18.68281 -51.50466 4421 ft 171 kts 334°
2026-05-07 23:58 -18.67244 -51.51059 4432 ft 170 kts 334°
2026-05-07 23:58 -18.66192 -51.51648 4441 ft 174 kts 334°
2026-05-07 23:58 -18.65128 -51.52252 4425 ft 176 kts 334°
2026-05-07 23:58 -18.64055 -51.52862 4429 ft 175 kts 334°
2026-05-07 23:59 -18.62980 -51.53473 4434 ft 176 kts 333°
2026-05-07 23:59 -18.61911 -51.54080 4437 ft 174 kts 334°
2026-05-07 23:59 -18.60843 -51.54675 4419 ft 172 kts 335°
2026-05-07 23:59 -18.59790 -51.55266 4419 ft 172 kts 334°
2026-05-08 00:00 -18.58743 -51.55868 4433 ft 173 kts 334°
2026-05-08 00:00 -18.57669 -51.56477 4441 ft 177 kts 334°
2026-05-08 00:00 -18.56580 -51.57088 4431 ft 176 kts 334°
2026-05-08 00:00 -18.55517 -51.57693 4428 ft 171 kts 334°
2026-05-08 00:01 -18.54465 -51.58286 4438 ft 173 kts 334°
2026-05-08 00:01 -18.53400 -51.58886 4434 ft 173 kts 334°
2026-05-08 00:01 -18.52702 -51.59284 4434 ft 171 kts 333°
2026-05-08 00:01 -18.51290 -51.60077 4435 ft 174 kts 334°
2026-05-08 00:02 -18.50578 -51.60478 4445 ft 176 kts 334°
2026-05-08 00:02 -18.49494 -51.61089 4436 ft 176 kts 334°
2026-05-08 00:02 -18.48429 -51.61692 4434 ft 171 kts 333°
2026-05-08 00:02 -18.47380 -51.62290 4441 ft 173 kts 334°
2026-05-08 00:03 -18.46312 -51.62892 4438 ft 174 kts 333°
2026-05-08 00:03 -18.45250 -51.63498 4445 ft 174 kts 335°
2026-05-08 00:03 -18.44174 -51.64098 4438 ft 175 kts 334°
2026-05-08 00:03 -18.43107 -51.64698 4440 ft 174 kts 335°
2026-05-08 00:04 -18.42048 -51.65299 4432 ft 172 kts 334°
2026-05-08 00:04 -18.40992 -51.65884 4440 ft 174 kts 335°
2026-05-08 00:04 -18.39928 -51.66481 4434 ft 172 kts 333°
2026-05-08 00:04 -18.38877 -51.67087 4444 ft 173 kts 334°
2026-05-08 00:05 -18.37810 -51.67688 4446 ft 174 kts 334°
2026-05-08 00:05 -18.36731 -51.68285 4450 ft 173 kts 338°
2026-05-08 00:05 -18.35579 -51.68623 4446 ft 172 kts 349°
2026-05-08 00:05 -18.34420 -51.68864 4448 ft 168 kts 350°
2026-05-08 00:06 -18.33270 -51.69117 4439 ft 169 kts 349°
2026-05-08 00:06 -18.32106 -51.69380 4443 ft 171 kts 348°
2026-05-08 00:06 -18.30953 -51.69652 4437 ft 168 kts 348°
2026-05-08 00:06 -18.29812 -51.69918 4450 ft 169 kts 348°
2026-05-08 00:07 -18.28645 -51.70189 4446 ft 174 kts 348°
2026-05-08 00:07 -18.27453 -51.70463 4462 ft 177 kts 348°
2026-05-08 00:07 -18.26254 -51.70743 4456 ft 174 kts 348°
2026-05-08 00:07 -18.25066 -51.71014 4455 ft 174 kts 348°
2026-05-08 00:08 -18.23879 -51.71291 4453 ft 175 kts 347°
2026-05-08 00:08 -18.22709 -51.71558 4450 ft 170 kts 348°
2026-05-08 00:08 -18.21553 -51.71823 4455 ft 170 kts 348°
2026-05-08 00:08 -18.20379 -51.72097 4464 ft 175 kts 348°
2026-05-08 00:09 -18.19212 -51.72365 4465 ft 172 kts 348°
2026-05-08 00:09 -18.18029 -51.72643 4458 ft 173 kts 348°
2026-05-08 00:09 -18.16924 -51.72900 4456 ft 168 kts 348°
2026-05-08 00:09 -18.15772 -51.73165 4449 ft 168 kts 348°
2026-05-08 00:10 -18.14635 -51.73418 4438 ft 166 kts 348°
2026-05-08 00:10 -18.13515 -51.73675 4449 ft 165 kts 348°
2026-05-08 00:10 -18.12390 -51.73934 4455 ft 165 kts 348°
2026-05-08 00:10 -18.11251 -51.74208 4452 ft 169 kts 348°
2026-05-08 00:11 -18.10115 -51.74467 4457 ft 166 kts 348°
2026-05-08 00:11 -18.08976 -51.74722 4469 ft 170 kts 348°
2026-05-08 00:11 -18.07804 -51.74993 4469 ft 173 kts 348°
2026-05-08 00:11 -18.06644 -51.75266 4470 ft 169 kts 348°
2026-05-08 00:12 -18.05487 -51.75536 4450 ft 169 kts 348°
2026-05-08 00:12 -18.04332 -51.75798 4456 ft 171 kts 348°
2026-05-08 00:12 -18.03173 -51.76065 4461 ft 169 kts 349°
2026-05-08 00:12 -18.02031 -51.76327 4462 ft 167 kts 348°
2026-05-08 00:13 -18.00890 -51.76590 4461 ft 170 kts 348°
2026-05-08 00:13 -17.99742 -51.76857 4462 ft 169 kts 349°
2026-05-08 00:13 -17.98587 -51.77124 4477 ft 172 kts 348°
2026-05-08 00:13 -17.97403 -51.77399 4468 ft 173 kts 349°
2026-05-08 00:14 -17.96222 -51.77665 4471 ft 174 kts 348°
2026-05-08 00:14 -17.95051 -51.77936 4473 ft 173 kts 348°
2026-05-08 00:14 -17.93861 -51.78211 4464 ft 175 kts 349°
2026-05-08 00:14 -17.92647 -51.78332 4473 ft 175 kts
2026-05-08 00:15 -17.91433 -51.78202 4477 ft 177 kts
2026-05-08 00:15 -17.90211 -51.78087 4463 ft 179 kts
2026-05-08 00:15 -17.88993 -51.77996 4466 ft 174 kts
2026-05-08 00:15 -17.87789 -51.77895 4473 ft 173 kts
2026-05-08 00:16 -17.86585 -51.77808 4488 ft 173 kts
2026-05-08 00:16 -17.85366 -51.77706 4478 ft 178 kts
2026-05-08 00:16 -17.84147 -51.77612 4460 ft 172 kts
2026-05-08 00:16 -17.82964 -51.77527 4467 ft 170 kts
2026-05-08 00:17 -17.81777 -51.77422 4462 ft 171 kts
2026-05-08 00:17 -17.80598 -51.77331 4472 ft 171 kts
2026-05-08 00:17 -17.79398 -51.77246 4483 ft 174 kts
2026-05-08 00:17 -17.78183 -51.77155 4473 ft 175 kts
2026-05-08 00:18 -17.76962 -51.77058 4476 ft 177 kts
2026-05-08 00:18 -17.75726 -51.76955 4482 ft 177 kts
2026-05-08 00:18 -17.74509 -51.76862 4477 ft 174 kts
2026-05-08 00:18 -17.73302 -51.76776 4468 ft 172 kts 359°
2026-05-08 00:19 -17.72221 -51.77183 4391 ft 169 kts 323°
2026-05-08 00:19 -17.71665 -51.78264 4158 ft 177 kts 288°
2026-05-08 00:19 -17.71467 -51.79519 3955 ft 173 kts 284°
2026-05-08 00:19 -17.71291 -51.80773 3735 ft 174 kts 284°
2026-05-08 00:20 -17.71366 -51.82029 3510 ft 176 kts 257°
2026-05-08 00:20 -17.71799 -51.83178 3473 ft 163 kts 254°
2026-05-08 00:20 -17.72218 -51.84258 3423 ft 157 kts 248°
2026-05-08 00:20 -17.72990 -51.85096 3417 ft 163 kts 222°
2026-05-08 00:21 -17.73855 -51.85817 3413 ft 157 kts 219°
2026-05-08 00:21 -17.74913 -51.86054 3410 ft 162 kts 169°
2026-05-08 00:21 -17.75988 -51.85784 3411 ft 152 kts 166°
2026-05-08 00:21 -17.76983 -51.85484 3421 ft 149 kts 159°
2026-05-08 00:22 -17.77924 -51.85109 3417 ft 143 kts 154°
2026-05-08 00:22 -17.78836 -51.84663 3413 ft 146 kts 150°
2026-05-08 00:22 -17.79705 -51.84178 3421 ft 137 kts 143°
2026-05-08 00:22 -17.80444 -51.83546 3413 ft 133 kts 127°
2026-05-08 00:23 -17.81019 -51.82809 3415 ft 128 kts 118°
2026-05-08 00:23 -17.81472 -51.82021 3409 ft 124 kts 109°
2026-05-08 00:23 -17.81802 -51.81177 3311 ft 129 kts 99°
2026-05-08 00:23 -17.82048 -51.80240 3201 ft 137 kts 101°
2026-05-08 00:24 -17.82326 -51.79319 2927 ft 119 kts 108°
2026-05-08 00:24 -17.82593 -51.78549 2647 ft 107 kts 108°
2026-05-08 00:24 -17.82839 -51.77864 2513 ft 90 kts 110°
2026-05-08 00:24 -17.82961 -51.77515 2521 ft 15 kts 110°
2026-05-08 00:25 -17.83001 -51.77443 2521 ft 9 kts 162°
2026-05-08 00:25 -17.83038 -51.77455 2525 ft 4 kts 248°
2026-05-08 00:25 -17.83028 -51.77484 2524 ft 4 kts 273°
2026-05-08 00:25 -17.83033 -51.77492 2517 ft 0 kts 204°